HDA761 ZPPP-VHHX

Flight info

Callsign HDA761
Flight time 1h 58m
Altitude 37100
Route LXI1Y LXI A599 BSE R339 SIKOU/N0451F371
Aircraft A320/M-SDE3FGHIRWY/LB1

Departure

Time 2026-05-06 07:22
Airport Kunming Changshui International Airport (ZPPP)

Arrival

Time 2026-05-06 09:21
Airport Hong Kong International Airport Kai Tak (VHHX)
Time Latitude Longitude Altitude Speed Heading
2026-05-06 06:34 25.10724 102.92830 6931 ft 0 kts 149°
2026-05-06 07:01 25.10736 102.92822 6921 ft 4 kts 147°
2026-05-06 07:01 25.10758 102.92805 6921 ft 4 kts 141°
2026-05-06 07:02 25.10778 102.92785 6921 ft 4 kts 122°
2026-05-06 07:02 25.10784 102.92764 6919 ft 4 kts 53°
2026-05-06 07:02 25.10782 102.92760 6919 ft 0 kts 39°
2026-05-06 07:12 25.10794 102.92771 6910 ft 4 kts 39°
2026-05-06 07:12 25.10824 102.92798 6904 ft 7 kts 39°
2026-05-06 07:12 25.10869 102.92837 6912 ft 9 kts 38°
2026-05-06 07:13 25.10921 102.92883 6903 ft 10 kts 38°
2026-05-06 07:13 25.10989 102.92942 6903 ft 15 kts 38°
2026-05-06 07:13 25.11064 102.93016 6903 ft 14 kts 71°
2026-05-06 07:13 25.11015 102.93108 6902 ft 15 kts 129°
2026-05-06 07:14 25.10944 102.93207 6901 ft 18 kts 128°
2026-05-06 07:14 25.10862 102.93320 6900 ft 19 kts 128°
2026-05-06 07:14 25.10775 102.93440 6898 ft 21 kts 129°
2026-05-06 07:14 25.10683 102.93570 6896 ft 22 kts 128°
2026-05-06 07:15 25.10583 102.93706 6895 ft 23 kts 128°
2026-05-06 07:15 25.10482 102.93846 6894 ft 23 kts 128°
2026-05-06 07:15 25.10427 102.93965 6893 ft 13 kts 73°
2026-05-06 07:15 25.10493 102.94031 6893 ft 13 kts 38°
2026-05-06 07:16 25.10567 102.94096 6893 ft 14 kts 38°
2026-05-06 07:16 25.10643 102.94162 6892 ft 14 kts 38°
2026-05-06 07:16 25.10722 102.94230 6892 ft 15 kts 38°
2026-05-06 07:16 25.10805 102.94302 6892 ft 15 kts 38°
2026-05-06 07:17 25.10890 102.94376 6891 ft 16 kts 38°
2026-05-06 07:17 25.10977 102.94452 6891 ft 16 kts 38°
2026-05-06 07:17 25.11067 102.94531 6891 ft 17 kts 38°
2026-05-06 07:17 25.11159 102.94611 6891 ft 17 kts 38°
2026-05-06 07:18 25.11253 102.94693 6890 ft 18 kts 38°
2026-05-06 07:18 25.11351 102.94777 6890 ft 18 kts 38°
2026-05-06 07:18 25.11452 102.94865 6890 ft 19 kts 38°
2026-05-06 07:18 25.11556 102.94956 6889 ft 19 kts 38°
2026-05-06 07:19 25.11662 102.95049 6889 ft 20 kts 38°
2026-05-06 07:19 25.11773 102.95144 6888 ft 20 kts 38°
2026-05-06 07:19 25.11884 102.95242 6888 ft 21 kts 38°
2026-05-06 07:19 25.11999 102.95341 6887 ft 21 kts 38°
2026-05-06 07:20 25.12114 102.95441 6887 ft 21 kts 38°
2026-05-06 07:20 25.12230 102.95542 6887 ft 20 kts 38°
2026-05-06 07:20 25.12282 102.95633 6887 ft 13 kts 107°
2026-05-06 07:20 25.12227 102.95713 6887 ft 13 kts 130°
2026-05-06 07:21 25.12171 102.95789 6889 ft 12 kts 128°
2026-05-06 07:21 25.12101 102.95797 6889 ft 9 kts 217°
2026-05-06 07:21 25.12091 102.95788 6889 ft 3 kts 218°
2026-05-06 07:21 25.11916 102.95635 6889 ft 67 kts 218°
2026-05-06 07:22 25.11390 102.95178 6890 ft 123 kts 218°
2026-05-06 07:22 25.10603 102.94489 6891 ft 168 kts 218°
2026-05-06 07:22 25.09609 102.93626 7334 ft 181 kts 220°
2026-05-06 07:22 25.08632 102.92778 8110 ft 184 kts 221°
2026-05-06 07:23 25.07628 102.91911 8842 ft 183 kts 221°
2026-05-06 07:23 25.06577 102.91007 9069 ft 202 kts 225°
2026-05-06 07:23 25.05422 102.89993 9213 ft 223 kts 223°
2026-05-06 07:23 25.04150 102.88875 9393 ft 244 kts 223°
2026-05-06 07:24 25.02792 102.87690 9973 ft 249 kts 223°
2026-05-06 07:24 25.01410 102.86493 10537 ft 256 kts 222°
2026-05-06 07:24 25.00003 102.85273 11159 ft 260 kts 223°
2026-05-06 07:24 24.98572 102.84033 11773 ft 264 kts 223°
2026-05-06 07:25 24.97125 102.82781 12434 ft 265 kts 223°
2026-05-06 07:25 24.95668 102.81522 13038 ft 268 kts 223°
2026-05-06 07:25 24.94112 102.80361 13643 ft 276 kts 205°
2026-05-06 07:25 24.92164 102.80086 14100 ft 296 kts 175°
2026-05-06 07:26 24.90246 102.81027 14580 ft 313 kts 142°
2026-05-06 07:26 24.88887 102.82940 15086 ft 322 kts 119°
2026-05-06 07:26 24.87972 102.85210 15603 ft 326 kts 113°
2026-05-06 07:26 24.87134 102.87551 16108 ft 331 kts 113°
2026-05-06 07:27 24.86289 102.89915 16657 ft 334 kts 113°
2026-05-06 07:27 24.85388 102.92270 17127 ft 338 kts 117°
2026-05-06 07:27 24.84243 102.94602 17237 ft 353 kts 123°
2026-05-06 07:27 24.82909 102.96932 17362 ft 367 kts 126°
2026-05-06 07:28 24.81463 102.99318 17467 ft 382 kts 126°
2026-05-06 07:28 24.79953 103.01798 17599 ft 398 kts 126°
2026-05-06 07:28 24.77521 103.07473 18127 ft 419 kts 112°
2026-05-06 07:29 24.76473 103.10482 18584 ft 422 kts 112°
2026-05-06 07:29 24.75432 103.13512 18985 ft 426 kts 112°
2026-05-06 07:29 24.74389 103.16565 19464 ft 428 kts 112°
2026-05-06 07:29 24.73336 103.19642 19942 ft 430 kts 112°
2026-05-06 07:30 24.72273 103.22722 20417 ft 432 kts 112°
2026-05-06 07:30 24.71201 103.25811 20878 ft 434 kts 113°
2026-05-06 07:30 24.70115 103.28922 21324 ft 437 kts 113°
2026-05-06 07:30 24.69019 103.32048 21771 ft 439 kts 113°
2026-05-06 07:31 24.67917 103.35189 22206 ft 442 kts 113°
2026-05-06 07:31 24.66809 103.38353 22627 ft 444 kts 113°
2026-05-06 07:31 24.65698 103.41523 23029 ft 446 kts 113°
2026-05-06 07:31 24.64580 103.44718 23420 ft 449 kts 113°
2026-05-06 07:32 24.63454 103.47928 23745 ft 451 kts 113°
2026-05-06 07:32 24.62323 103.51156 24032 ft 453 kts 113°
2026-05-06 07:32 24.61191 103.54391 24368 ft 455 kts 113°
2026-05-06 07:32 24.60051 103.57645 24687 ft 457 kts 113°
2026-05-06 07:33 24.58903 103.60908 24987 ft 459 kts 113°
2026-05-06 07:33 24.57748 103.64188 25275 ft 461 kts 113°
2026-05-06 07:33 24.56589 103.67478 25575 ft 463 kts 113°
2026-05-06 07:33 24.55434 103.70749 25859 ft 466 kts 113°
2026-05-06 07:34 24.54295 103.74088 26137 ft 469 kts 109°
2026-05-06 07:34 24.53460 103.77614 26421 ft 473 kts 104°
2026-05-06 07:34 24.52722 103.81091 26683 ft 475 kts 104°
2026-05-06 07:34 24.51976 103.84628 26958 ft 477 kts 104°
2026-05-06 07:35 24.51217 103.88233 27223 ft 480 kts 104°
2026-05-06 07:35 24.50462 103.91812 27525 ft 482 kts 104°
2026-05-06 07:35 24.49709 103.95366 27752 ft 485 kts 105°
2026-05-06 07:35 24.48928 103.99017 28030 ft 487 kts 104°
2026-05-06 07:36 24.48157 104.02595 28329 ft 489 kts 105°
2026-05-06 07:36 24.47373 104.06243 28614 ft 492 kts 104°
2026-05-06 07:36 24.46588 104.09903 28896 ft 495 kts 105°
2026-05-06 07:36 24.45798 104.13584 29192 ft 497 kts 105°
2026-05-06 07:37 24.45002 104.17280 29573 ft 497 kts 104°
2026-05-06 07:37 24.44207 104.20970 29993 ft 496 kts 105°
2026-05-06 07:37 24.43411 104.24658 30291 ft 497 kts 105°
2026-05-06 07:37 24.42615 104.28350 30604 ft 497 kts 105°
2026-05-06 07:38 24.41820 104.32038 30964 ft 497 kts 105°
2026-05-06 07:38 24.41025 104.35731 31286 ft 498 kts 105°
2026-05-06 07:38 24.40232 104.39428 31575 ft 498 kts 105°
2026-05-06 07:38 24.39433 104.43130 31918 ft 499 kts 105°
2026-05-06 07:39 24.38630 104.46826 32249 ft 499 kts 105°
2026-05-06 07:39 24.37822 104.50536 32573 ft 500 kts 105°
2026-05-06 07:39 24.37011 104.54243 32905 ft 500 kts 105°
2026-05-06 07:39 24.36197 104.57961 33228 ft 501 kts 105°
2026-05-06 07:40 24.35383 104.61675 33500 ft 502 kts 105°
2026-05-06 07:40 24.34570 104.65393 33755 ft 502 kts 105°
2026-05-06 07:40 24.33756 104.69118 34064 ft 502 kts 105°
2026-05-06 07:40 24.32945 104.72842 34394 ft 501 kts 105°
2026-05-06 07:41 24.32137 104.76554 34711 ft 501 kts 105°
2026-05-06 07:41 24.31327 104.80264 35021 ft 500 kts 105°
2026-05-06 07:41 24.30512 104.83971 35302 ft 500 kts 105°
2026-05-06 07:41 24.29698 104.87666 35589 ft 499 kts 105°
2026-05-06 07:42 24.28885 104.91364 35864 ft 498 kts 105°
2026-05-06 07:42 24.28075 104.95054 36118 ft 498 kts 105°
2026-05-06 07:42 24.27262 104.98746 36375 ft 497 kts 105°
2026-05-06 07:42 24.26449 105.02418 36662 ft 496 kts 105°
2026-05-06 07:43 24.25636 105.06082 36795 ft 496 kts 105°
2026-05-06 07:43 24.24814 105.09782 36831 ft 501 kts 105°
2026-05-06 07:43 24.23159 105.17216 36820 ft 504 kts 105°
2026-05-06 07:44 24.21482 105.24680 36823 ft 505 kts 106°
2026-05-06 07:44 24.19709 105.32068 36821 ft 504 kts 107°
2026-05-06 07:45 24.17874 105.39478 36829 ft 504 kts 107°
2026-05-06 07:45 24.16053 105.46892 36829 ft 504 kts 106°
2026-05-06 07:46 24.14253 105.54318 36832 ft 505 kts 106°
2026-05-06 07:46 24.12448 105.61744 36833 ft 505 kts 106°
2026-05-06 07:47 24.10637 105.69165 36835 ft 505 kts 106°
2026-05-06 07:47 24.08960 105.76643 36844 ft 506 kts 103°
2026-05-06 07:48 24.07529 105.84181 36852 ft 506 kts 102°
2026-05-06 07:48 24.06125 105.91734 36851 ft 506 kts 103°
2026-05-06 07:49 24.04643 105.99252 36855 ft 506 kts 104°
2026-05-06 07:49 24.03364 106.05504 36854 ft 506 kts 103°
2026-05-06 07:50 24.01583 106.14279 36853 ft 506 kts 103°
2026-05-06 07:50 24.00079 106.21792 36865 ft 506 kts 103°
2026-05-06 07:51 23.98830 106.28035 36864 ft 505 kts 103°
2026-05-06 07:51 23.97319 106.35543 36868 ft 505 kts 103°
2026-05-06 07:52 23.95817 106.43038 36874 ft 505 kts 103°
2026-05-06 07:52 23.94300 106.50535 36885 ft 505 kts 103°
2026-05-06 07:53 23.92399 106.57898 36884 ft 502 kts 115°
2026-05-06 07:53 23.88766 106.64325 36895 ft 496 kts 134°
2026-05-06 07:54 23.84088 106.69842 36894 ft 495 kts 136°
2026-05-06 07:54 23.79399 106.75344 36899 ft 496 kts 136°
2026-05-06 07:55 23.74731 106.80823 36898 ft 496 kts 136°
2026-05-06 07:55 23.70033 106.86335 36908 ft 496 kts 136°
2026-05-06 07:56 23.65292 106.91868 36925 ft 496 kts 136°
2026-05-06 07:56 23.60608 106.97324 36926 ft 496 kts 136°
2026-05-06 07:57 23.55905 107.02818 36929 ft 496 kts 136°
2026-05-06 07:57 23.51196 107.08301 36944 ft 495 kts 136°
2026-05-06 07:58 23.46488 107.13774 36946 ft 495 kts 136°
2026-05-06 07:58 23.41787 107.19242 36954 ft 494 kts 136°
2026-05-06 07:59 23.37094 107.24700 36959 ft 493 kts 136°
2026-05-06 07:59 23.32405 107.30141 36961 ft 492 kts 136°
2026-05-06 08:00 23.27724 107.35564 36966 ft 492 kts 136°
2026-05-06 08:00 23.23041 107.40981 36974 ft 491 kts 136°
2026-05-06 08:01 23.18363 107.46381 36975 ft 491 kts 136°
2026-05-06 08:01 23.13686 107.51782 36975 ft 490 kts 136°
2026-05-06 08:02 23.09019 107.57165 36973 ft 489 kts 136°
2026-05-06 08:02 23.04348 107.62551 36966 ft 489 kts 135°
2026-05-06 08:03 22.99685 107.67920 36971 ft 489 kts 136°
2026-05-06 08:03 22.95019 107.73288 36973 ft 489 kts 136°
2026-05-06 08:04 22.90354 107.78654 36974 ft 489 kts 136°
2026-05-06 08:04 22.85685 107.84021 36976 ft 489 kts 136°
2026-05-06 08:05 22.81022 107.89371 36983 ft 488 kts 136°
2026-05-06 08:05 22.76358 107.94721 36983 ft 488 kts 136°
2026-05-06 08:06 22.71691 108.00061 36983 ft 488 kts 136°
2026-05-06 08:06 22.67021 108.05406 36979 ft 488 kts 136°
2026-05-06 08:07 22.62382 108.10693 36981 ft 488 kts 136°
2026-05-06 08:07 22.57723 108.16024 36981 ft 488 kts 134°
2026-05-06 08:08 22.53279 108.21596 36980 ft 489 kts 131°
2026-05-06 08:08 22.48996 108.27315 36992 ft 489 kts 131°
2026-05-06 08:09 22.44680 108.33006 36993 ft 489 kts 131°
2026-05-06 08:09 22.40308 108.38638 36991 ft 489 kts 132°
2026-05-06 08:10 22.35921 108.44238 36987 ft 488 kts 132°
2026-05-06 08:10 22.31536 108.49837 36984 ft 488 kts 132°
2026-05-06 08:11 22.27167 108.55445 36986 ft 488 kts 131°
2026-05-06 08:11 22.22805 108.61050 36996 ft 488 kts 132°
2026-05-06 08:12 22.18434 108.66645 36997 ft 487 kts 132°
2026-05-06 08:12 22.14065 108.72231 36993 ft 487 kts 132°
2026-05-06 08:13 22.09694 108.77818 36996 ft 488 kts 132°
2026-05-06 08:13 22.05330 108.83418 37004 ft 488 kts 132°
2026-05-06 08:14 22.00998 108.88981 37003 ft 487 kts 132°
2026-05-06 08:14 21.96641 108.94574 36988 ft 487 kts 131°
2026-05-06 08:15 21.92257 109.00183 36992 ft 486 kts 132°
2026-05-06 08:15 21.87923 109.05710 36996 ft 486 kts 132°
2026-05-06 08:16 21.83565 109.11264 36997 ft 486 kts 132°
2026-05-06 08:16 21.79211 109.16837 36999 ft 486 kts 131°
2026-05-06 08:17 21.74886 109.22412 36999 ft 485 kts 131°
2026-05-06 08:17 21.70555 109.27976 36991 ft 485 kts 132°
2026-05-06 08:18 21.66213 109.33527 36991 ft 485 kts 132°
2026-05-06 08:18 21.61875 109.39077 36989 ft 485 kts 132°
2026-05-06 08:19 21.57826 109.44858 36987 ft 486 kts 120°
2026-05-06 08:19 21.54626 109.51263 36989 ft 486 kts 119°
2026-05-06 08:20 21.51453 109.57673 36988 ft 486 kts 119°
2026-05-06 08:20 21.48274 109.64070 36995 ft 485 kts 119°
2026-05-06 08:21 21.45082 109.70458 36989 ft 485 kts 119°
2026-05-06 08:21 21.41891 109.76840 36989 ft 485 kts 119°
2026-05-06 08:22 21.38701 109.83221 36985 ft 485 kts 119°
2026-05-06 08:22 21.35510 109.89602 36993 ft 485 kts 119°
2026-05-06 08:23 21.32318 109.95978 36999 ft 485 kts 119°
2026-05-06 08:23 21.29123 110.02338 36990 ft 485 kts 119°
2026-05-06 08:24 21.25945 110.08662 36990 ft 485 kts 119°
2026-05-06 08:24 21.22742 110.15023 36995 ft 485 kts 119°
2026-05-06 08:25 21.19538 110.21373 36991 ft 484 kts 119°
2026-05-06 08:25 21.16339 110.27718 36995 ft 484 kts 119°
2026-05-06 08:26 21.13372 110.34176 37000 ft 484 kts 109°
2026-05-06 08:26 21.11572 110.41115 37001 ft 483 kts 104°
2026-05-06 08:27 21.09842 110.48074 36998 ft 483 kts 105°
2026-05-06 08:27 21.08099 110.55028 36995 ft 483 kts 105°
2026-05-06 08:28 21.06359 110.61973 36998 ft 483 kts 105°
2026-05-06 08:28 21.04612 110.68930 36996 ft 483 kts 105°
2026-05-06 08:29 21.02872 110.75881 36997 ft 483 kts 105°
2026-05-06 08:29 21.01128 110.82824 36999 ft 483 kts 105°
2026-05-06 08:30 20.99380 110.89774 37006 ft 483 kts 105°
2026-05-06 08:30 20.97622 110.96717 37003 ft 483 kts 105°
2026-05-06 08:31 20.95871 111.03654 36998 ft 483 kts 105°
2026-05-06 08:31 20.94140 111.10556 37001 ft 483 kts 104°
2026-05-06 08:32 20.92415 111.17542 37004 ft 483 kts 104°
2026-05-06 08:32 20.90714 111.24450 37005 ft 483 kts 104°
2026-05-06 08:33 20.88992 111.31390 37003 ft 483 kts 104°
2026-05-06 08:33 20.87264 111.38322 37005 ft 483 kts 104°
2026-05-06 08:34 20.85064 111.48805 37001 ft 481 kts 92°
2026-05-06 08:35 20.85635 111.55886 36999 ft 477 kts 75°
2026-05-06 08:35 20.87167 111.62786 36995 ft 477 kts 75°
2026-05-06 08:36 20.88685 111.69699 36996 ft 478 kts 75°
2026-05-06 08:36 20.90204 111.76623 36999 ft 478 kts 75°
2026-05-06 08:37 20.91724 111.83544 37003 ft 478 kts 75°
2026-05-06 08:37 20.93236 111.90469 37006 ft 478 kts 75°
2026-05-06 08:38 20.94493 111.96228 37010 ft 478 kts 75°
2026-05-06 08:38 20.96006 112.03153 37012 ft 478 kts 75°
2026-05-06 08:39 20.97752 112.11259 37019 ft 478 kts 75°
2026-05-06 08:39 20.98994 112.17018 37021 ft 478 kts 75°
2026-05-06 08:40 21.00498 112.23946 37021 ft 478 kts 75°
2026-05-06 08:40 21.01998 112.30871 37016 ft 478 kts 75°
2026-05-06 08:41 21.03488 112.37809 37020 ft 478 kts 75°
2026-05-06 08:41 21.04977 112.44736 37023 ft 478 kts 75°
2026-05-06 08:42 21.06469 112.51667 37024 ft 478 kts 75°
2026-05-06 08:42 21.07968 112.58587 37024 ft 477 kts 75°
2026-05-06 08:42 21.08711 112.62056 36838 ft 477 kts 75°
2026-05-06 08:43 21.09447 112.65516 36589 ft 477 kts 75°
2026-05-06 08:43 21.10175 112.68942 36342 ft 477 kts 75°
2026-05-06 08:43 21.10924 112.72450 36102 ft 478 kts 75°
2026-05-06 08:43 21.11669 112.75917 35863 ft 478 kts 75°
2026-05-06 08:44 21.12415 112.79388 35623 ft 479 kts 75°
2026-05-06 08:44 21.13149 112.82822 35394 ft 479 kts 75°
2026-05-06 08:44 21.13889 112.86300 35052 ft 480 kts 75°
2026-05-06 08:44 21.14633 112.89809 34175 ft 486 kts 75°
2026-05-06 08:45 21.15387 112.93363 33188 ft 492 kts 75°
2026-05-06 08:45 21.16142 112.96931 32618 ft 488 kts 76°
2026-05-06 08:45 21.16895 113.00507 32049 ft 485 kts 76°
2026-05-06 08:45 21.17627 113.03972 31476 ft 482 kts 76°
2026-05-06 08:46 21.18364 113.07467 30889 ft 480 kts 76°
2026-05-06 08:46 21.19098 113.10947 30309 ft 478 kts 76°
2026-05-06 08:46 21.19830 113.14407 29681 ft 476 kts 77°
2026-05-06 08:46 21.20560 113.17863 29099 ft 472 kts 77°
2026-05-06 08:47 21.21278 113.21282 28509 ft 468 kts 77°
2026-05-06 08:47 21.21985 113.24662 27958 ft 464 kts 77°
2026-05-06 08:47 21.22686 113.28023 27404 ft 460 kts 77°
2026-05-06 08:47 21.23384 113.31364 26863 ft 457 kts 77°
2026-05-06 08:48 21.24078 113.34671 26331 ft 454 kts 77°
2026-05-06 08:48 21.24764 113.37953 25818 ft 450 kts 77°
2026-05-06 08:48 21.25447 113.41222 25314 ft 448 kts 77°
2026-05-06 08:48 21.26124 113.44467 24824 ft 445 kts 77°
2026-05-06 08:49 21.26796 113.47697 24335 ft 443 kts 77°
2026-05-06 08:49 21.27466 113.50920 23844 ft 441 kts 77°
2026-05-06 08:49 21.28137 113.54132 23319 ft 440 kts 76°
2026-05-06 08:49 21.29155 113.57200 22805 ft 436 kts 62°
2026-05-06 08:50 21.30789 113.59907 22334 ft 430 kts 48°
2026-05-06 08:50 21.32893 113.62088 21839 ft 425 kts 35°
2026-05-06 08:50 21.35440 113.63716 21346 ft 420 kts 21°
2026-05-06 08:50 21.38128 113.64908 20856 ft 417 kts 19°
2026-05-06 08:51 21.40770 113.66065 20354 ft 415 kts 20°
2026-05-06 08:51 21.43428 113.67231 20010 ft 409 kts 20°
2026-05-06 08:51 21.46055 113.68388 19528 ft 407 kts 20°
2026-05-06 08:51 21.48658 113.69552 19061 ft 405 kts 21°
2026-05-06 08:52 21.51250 113.70726 18589 ft 402 kts 21°
2026-05-06 08:52 21.53812 113.71897 18012 ft 396 kts 21°
2026-05-06 08:52 21.56328 113.73051 17170 ft 392 kts 21°
2026-05-06 08:52 21.58827 113.74191 16701 ft 387 kts 19°
2026-05-06 08:53 21.61356 113.74972 16580 ft 370 kts 11°
2026-05-06 08:53 21.63818 113.75598 16499 ft 357 kts 11°
2026-05-06 08:53 21.66209 113.76217 16165 ft 352 kts 11°
2026-05-06 08:53 21.68589 113.76834 15704 ft 351 kts 11°
2026-05-06 08:54 21.70962 113.77445 15240 ft 351 kts 11°
2026-05-06 08:54 21.73342 113.78053 14772 ft 351 kts 10°
2026-05-06 08:54 21.75716 113.78659 14307 ft 350 kts 10°
2026-05-06 08:54 21.78088 113.79264 13843 ft 350 kts 10°
2026-05-06 08:55 21.80456 113.79870 13333 ft 349 kts 11°
2026-05-06 08:55 21.82811 113.80472 12872 ft 347 kts 11°
2026-05-06 08:55 21.85148 113.81073 12451 ft 344 kts 11°
2026-05-06 08:55 21.87458 113.81668 12017 ft 341 kts 11°
2026-05-06 08:56 21.89762 113.82258 11568 ft 340 kts 11°
2026-05-06 08:56 21.92065 113.82847 11120 ft 339 kts 11°
2026-05-06 08:56 21.94351 113.83430 10674 ft 338 kts 11°
2026-05-06 08:56 21.96638 113.84014 10256 ft 337 kts 11°
2026-05-06 08:57 21.98886 113.84592 10132 ft 326 kts 11°
2026-05-06 08:57 22.01052 113.85150 10016 ft 315 kts 11°
2026-05-06 08:57 22.03161 113.85693 9801 ft 309 kts 11°
2026-05-06 08:57 22.05249 113.86230 9426 ft 308 kts 11°
2026-05-06 08:58 22.07332 113.86765 9073 ft 307 kts 11°
2026-05-06 08:58 22.09372 113.87289 8651 ft 304 kts 11°
2026-05-06 08:58 22.11451 113.87824 8174 ft 302 kts 11°
2026-05-06 08:58 22.13463 113.88342 7721 ft 300 kts 11°
2026-05-06 08:59 22.15495 113.88865 7073 ft 304 kts 11°
2026-05-06 08:59 22.17526 113.89386 6750 ft 291 kts 12°
2026-05-06 08:59 22.19434 113.89878 6616 ft 272 kts 11°
2026-05-06 08:59 22.21206 113.90336 6510 ft 253 kts 11°
2026-05-06 09:00 22.22904 113.90465 6328 ft 241 kts 352°
2026-05-06 09:00 22.24575 113.90392 6096 ft 240 kts 358°
2026-05-06 09:00 22.26239 113.90446 5811 ft 239 kts
2026-05-06 09:00 22.27887 113.90577 5468 ft 236 kts
2026-05-06 09:01 22.29423 113.91188 5023 ft 238 kts 30°
2026-05-06 09:01 22.30702 113.92310 4543 ft 239 kts 50°
2026-05-06 09:01 22.31507 113.93821 4481 ft 225 kts 72°
2026-05-06 09:01 22.31782 113.95480 4178 ft 224 kts 86°
2026-05-06 09:02 22.31896 113.97155 3891 ft 223 kts 87°
2026-05-06 09:02 22.32006 113.98812 3625 ft 220 kts 87°
2026-05-06 09:02 22.32114 114.00454 3358 ft 218 kts 89°
2026-05-06 09:02 22.32220 114.02090 3092 ft 219 kts 88°
2026-05-06 09:03 22.32328 114.03728 2829 ft 218 kts 86°
2026-05-06 09:03 22.32436 114.05355 2568 ft 217 kts 88°
2026-05-06 09:03 22.32544 114.06976 2285 ft 215 kts 88°
2026-05-06 09:03 22.32649 114.08545 2022 ft 201 kts 87°
2026-05-06 09:04 22.32743 114.09971 1804 ft 181 kts 88°
2026-05-06 09:04 22.32825 114.11253 1567 ft 162 kts 86°
2026-05-06 09:04 22.32896 114.12394 1374 ft 144 kts 88°
2026-05-06 09:04 22.32963 114.13451 1143 ft 139 kts 89°
2026-05-06 09:05 22.33023 114.14479 967 ft 138 kts 87°
2026-05-06 09:05 22.33069 114.15512 821 ft 136 kts 87°
2026-05-06 09:05 22.33131 114.16540 684 ft 139 kts 88°
2026-05-06 09:05 22.33190 114.17562 516 ft 137 kts 89°
2026-05-06 09:06 22.33056 114.18565 421 ft 136 kts 116°
2026-05-06 09:06 22.32439 114.19334 171 ft 133 kts 127°
2026-05-06 09:06 22.31777 114.20095 474 ft 143 kts 131°
2026-05-06 09:06 22.31084 114.20910 1181 ft 153 kts 131°
2026-05-06 09:07 22.30383 114.21795 1947 ft 155 kts 129°
2026-05-06 09:07 22.29665 114.22751 2251 ft 174 kts 128°
2026-05-06 09:07 22.28860 114.23836 2505 ft 198 kts 128°
2026-05-06 09:07 22.27967 114.25055 2993 ft 212 kts 129°
2026-05-06 09:08 22.27053 114.26335 3708 ft 217 kts 128°
2026-05-06 09:08 22.26140 114.27643 4407 ft 224 kts 128°
2026-05-06 09:08 22.25100 114.28933 5106 ft 227 kts 144°
2026-05-06 09:08 22.23703 114.29679 5817 ft 224 kts 172°
2026-05-06 09:09 22.22185 114.29637 6515 ft 223 kts 199°
2026-05-06 09:09 22.20781 114.28760 6856 ft 243 kts 228°
2026-05-06 09:09 22.19969 114.27138 7229 ft 263 kts 259°
2026-05-06 09:09 22.19974 114.25132 7778 ft 274 kts 274°
2026-05-06 09:10 22.20154 114.23076 7950 ft 276 kts 274°
2026-05-06 09:10 22.20345 114.21007 7993 ft 276 kts 274°
2026-05-06 09:10 22.20534 114.18956 7997 ft 275 kts 274°
2026-05-06 09:10 22.20721 114.16897 8001 ft 276 kts 274°
2026-05-06 09:11 22.20907 114.14841 8002 ft 275 kts 274°
2026-05-06 09:11 22.21092 114.12781 7999 ft 276 kts 274°
2026-05-06 09:11 22.21277 114.10721 8000 ft 276 kts 274°
2026-05-06 09:11 22.21459 114.08665 8002 ft 276 kts 274°
2026-05-06 09:12 22.21640 114.06607 8008 ft 275 kts 274°
2026-05-06 09:12 22.21820 114.04549 8005 ft 275 kts 274°
2026-05-06 09:12 22.21944 114.02501 7993 ft 275 kts 268°
2026-05-06 09:12 22.21893 114.00408 7485 ft 281 kts 267°
2026-05-06 09:13 22.21822 113.98327 7012 ft 276 kts 267°
2026-05-06 09:13 22.21747 113.96280 6594 ft 266 kts 266°
2026-05-06 09:13 22.21682 113.94362 6473 ft 246 kts 270°
2026-05-06 09:13 22.22038 113.92632 6351 ft 233 kts 295°
2026-05-06 09:14 22.23055 113.91296 6168 ft 231 kts 321°
2026-05-06 09:14 22.24523 113.90600 5892 ft 235 kts 349°
2026-05-06 09:14 22.26162 113.90573 5598 ft 236 kts 360°
2026-05-06 09:14 22.27805 113.90659 5328 ft 237 kts
2026-05-06 09:15 22.29368 113.91198 5049 ft 238 kts 27°
2026-05-06 09:15 22.30662 113.92281 4864 ft 233 kts 49°
2026-05-06 09:15 22.31483 113.93713 4742 ft 223 kts 71°
2026-05-06 09:15 22.31766 113.95308 4588 ft 206 kts 86°
2026-05-06 09:16 22.31869 113.96818 4180 ft 202 kts 87°
2026-05-06 09:16 22.31970 113.98321 3762 ft 199 kts 88°
2026-05-06 09:16 22.32070 113.99797 3457 ft 196 kts 88°
2026-05-06 09:16 22.32166 114.01266 3213 ft 195 kts 89°
2026-05-06 09:17 22.32258 114.02719 2980 ft 192 kts 89°
2026-05-06 09:17 22.32353 114.04148 2743 ft 190 kts 88°
2026-05-06 09:17 22.32447 114.05561 2528 ft 186 kts 88°
2026-05-06 09:17 22.32539 114.06921 2300 ft 176 kts 89°
2026-05-06 09:18 22.32624 114.08193 2083 ft 165 kts 87°
2026-05-06 09:18 22.32705 114.09416 1896 ft 159 kts 86°
2026-05-06 09:18 22.32781 114.10546 1704 ft 143 kts 86°
2026-05-06 09:18 22.32849 114.11587 1498 ft 138 kts 87°
2026-05-06 09:19 22.32916 114.12624 1319 ft 137 kts 88°
2026-05-06 09:19 22.32980 114.13632 1123 ft 135 kts 87°
2026-05-06 09:19 22.33044 114.14650 936 ft 136 kts 88°
2026-05-06 09:19 22.33110 114.15677 754 ft 137 kts 87°
2026-05-06 09:20 22.33175 114.16690 588 ft 132 kts 86°
2026-05-06 09:20 22.33198 114.17705 475 ft 136 kts 93°
2026-05-06 09:20 22.32990 114.18680 361 ft 133 kts 120°
2026-05-06 09:20 22.32370 114.19426 122 ft 132 kts 131°
2026-05-06 09:21 22.31745 114.20131 41 ft 120 kts 132°
2026-05-06 09:21 22.31271 114.20662 38 ft 73 kts 134°
2026-05-06 09:21 22.31037 114.20923 38 ft 24 kts 134°
2026-05-06 09:21 22.30951 114.21042 37 ft 14 kts 88°
2026-05-06 09:22 22.31018 114.21098 37 ft 10 kts 331°
2026-05-06 09:22 22.31073 114.21037 37 ft 13 kts 314°
2026-05-06 09:22 22.31139 114.20963 37 ft 15 kts 314°
2026-05-06 09:22 22.31218 114.20876 37 ft 17 kts 314°
2026-05-06 09:23 22.31307 114.20776 37 ft 20 kts 314°
2026-05-06 09:23 22.31409 114.20662 35 ft 22 kts 314°
2026-05-06 09:23 22.31519 114.20538 37 ft 22 kts 314°
2026-05-06 09:23 22.31627 114.20419 36 ft 23 kts 314°
2026-05-06 09:24 22.31746 114.20286 37 ft 26 kts 314°
2026-05-06 09:24 22.31876 114.20140 37 ft 27 kts 313°
2026-05-06 09:24 22.31998 114.20003 37 ft 22 kts 314°
2026-05-06 09:24 22.32103 114.19886 37 ft 23 kts 314°
2026-05-06 09:25 22.32198 114.19780 37 ft 18 kts 314°
2026-05-06 09:25 22.32276 114.19694 36 ft 14 kts 319°
2026-05-06 09:25 22.32351 114.19705 37 ft 12 kts 43°
2026-05-06 09:25 22.32402 114.19759 37 ft 9 kts 44°
2026-05-06 09:26 22.32434 114.19778 37 ft 2 kts 357°
2026-05-06 09:26 22.32452 114.19775 38 ft 3 kts 352°
2026-05-06 09:26 22.32484 114.19774 38 ft 6 kts 359°
2026-05-06 09:26 22.32517 114.19774 38 ft 3 kts 359°
2026-05-06 09:27 22.32520 114.19774 38 ft 0 kts 359°